Change the Weather History Date:

Tuesday, December 11, 2012

  Actual Average Record
Temperature  
Mean Temperature 26 °F -  
Max Temperature 35 °F 34 °F 53 °F (2001)
Min Temperature 17 °F 19 °F -11 °F (2013)
Degree Days  
Heating Degree Days 39    
Moisture  
Dew Point 18 °F    
Average Humidity 73    
Maximum Humidity 86    
Minimum Humidity 56    
Precipitation  
Precipitation 0.00 in - - ()
Sea Level Pressure  
Sea Level Pressure 29.89 in    
Wind  
Wind Speed 12 mph (WSW)    
Max Wind Speed 21 mph    
Max Gust Speed 28 mph    
Visibility 10 miles    
Events      
Averages and records for this station are not official NWS values.
T = Trace of Precipitation, MM = Missing Value Source: NWS Daily Summary

Daily Weather History Graph

Daily Weather History Graph

Search for Another Location

Airport or City:

Trip Planner

Search our weather history database for the weather conditions in past years. The results will help you decide how hot, cold, wet, or windy it might be!

Date:

Astronomy

Dec. 11, 2012 Rise Set
Actual Time 7:41 AM CST 4:47 PM CST
Civil Twilight 7:09 AM CST 5:19 PM CST
Nautical Twilight 6:33 AM CST 5:55 PM CST
Astronomical Twilight 5:59 AM CST 6:29 PM CST
Moon 5:36 AM CST (12/11) 3:28 PM CST (12/11)
Length of Visible Light 10h 10m
Length of Day
9h 06m
Waning Crescent, 4% of the Moon is Illuminated
Dec 11
Waning Crescent
Dec 13
New
Dec 19
First Quarter
Dec 28
Full
Jan 4
Last Quarter

Hourly Weather History & Observations

Time (CST) Temp. Windchill Dew Point Humidity Pressure Visibility Wind Dir Wind Speed Gust Speed Precip Events Conditions
12:15 AM 23.0 °F 10.1 °F 10.4 °F 59% 29.82 in 10.0 mi WSW 15.0 mph - N/A   Overcast
12:35 AM 23.0 °F 10.6 °F 10.4 °F 59% 29.83 in 10.0 mi WSW 13.8 mph - N/A   Overcast
12:55 AM 23.0 °F 12.4 °F 10.4 °F 59% 29.83 in 10.0 mi West 10.4 mph 19.6 mph N/A   Overcast
1:15 AM 23.0 °F 12.4 °F 12.2 °F 63% 29.82 in 10.0 mi WSW 10.4 mph - N/A   Overcast
1:35 AM 21.2 °F 10.9 °F 12.2 °F 68% 29.82 in 10.0 mi WSW 9.2 mph - N/A   Overcast
1:55 AM 19.4 °F 9.5 °F 12.2 °F 74% 29.82 in 10.0 mi WSW 8.1 mph - N/A   Partly Cloudy
2:15 AM 21.2 °F 8.9 °F 12.2 °F 68% 29.83 in 10.0 mi West 12.7 mph - N/A   Mostly Cloudy
2:35 AM 21.2 °F 9.5 °F 14.0 °F 74% 29.83 in 10.0 mi West 11.5 mph - N/A   Partly Cloudy
2:55 AM 21.2 °F 8.9 °F 14.0 °F 74% 29.84 in 10.0 mi West 12.7 mph - N/A   Clear
3:15 AM 21.2 °F 9.5 °F 14.0 °F 74% 29.84 in 10.0 mi West 11.5 mph - N/A   Clear
3:35 AM 19.4 °F 7.2 °F 14.0 °F 80% 29.84 in 10.0 mi West 11.5 mph - N/A   Clear
3:55 AM 17.6 °F 5.0 °F 14.0 °F 86% 29.85 in 10.0 mi West 11.5 mph - N/A   Clear
4:15 AM 17.6 °F 4.3 °F 14.0 °F 86% 29.84 in 10.0 mi West 12.7 mph - N/A   Clear
4:35 AM 17.6 °F 6.4 °F 14.0 °F 86% 29.85 in 10.0 mi West 9.2 mph - N/A   Clear
4:55 AM 17.6 °F 8.2 °F 14.0 °F 86% 29.85 in 10.0 mi West 6.9 mph - N/A   Clear
5:15 AM 17.6 °F 7.3 °F 14.0 °F 86% 29.86 in 10.0 mi West 8.1 mph - N/A   Clear
5:35 AM 17.6 °F 7.3 °F 14.0 °F 86% 29.86 in 10.0 mi West 8.1 mph - N/A   Scattered Clouds
5:55 AM 21.2 °F 10.9 °F 17.6 °F 86% 29.86 in 10.0 mi West 9.2 mph - N/A   Overcast
6:15 AM 21.2 °F 10.9 °F 17.6 °F 86% 29.87 in 10.0 mi West 9.2 mph - N/A   Overcast
6:35 AM 23.0 °F 12.4 °F 17.6 °F 80% 29.87 in 10.0 mi WSW 10.4 mph - N/A   Mostly Cloudy
6:55 AM 21.2 °F 10.1 °F 17.6 °F 86% 29.86 in 10.0 mi WSW 10.4 mph - N/A   Partly Cloudy
7:15 AM 21.2 °F 8.9 °F 17.6 °F 86% 29.87 in 10.0 mi WSW 12.7 mph - N/A   Clear
7:35 AM 21.2 °F 10.1 °F 17.6 °F 86% 29.87 in 10.0 mi WSW 10.4 mph - N/A   Clear
8:15 AM 21.2 °F 8.9 °F 17.6 °F 86% 29.88 in 10.0 mi WSW 12.7 mph - N/A   Partly Cloudy
8:35 AM 23.0 °F 11.1 °F 19.4 °F 86% 29.89 in 10.0 mi WSW 12.7 mph - N/A   Mostly Cloudy
8:55 AM 24.8 °F 12.9 °F 19.4 °F 80% 29.89 in 10.0 mi WSW 13.8 mph - N/A   Overcast
9:15 AM 24.8 °F 12.4 °F 21.2 °F 86% 29.89 in 10.0 mi WSW 15.0 mph - N/A   Overcast
9:35 AM 26.6 °F 15.2 °F 21.2 °F 80% 29.89 in 10.0 mi WSW 13.8 mph - N/A   Overcast
9:55 AM 28.4 °F 16.6 °F 23.0 °F 80% 29.89 in 10.0 mi WSW 16.1 mph 21.9 mph N/A   Mostly Cloudy
10:15 AM 28.4 °F 15.8 °F 21.2 °F 74% 29.90 in 10.0 mi West 18.4 mph - N/A   Overcast
10:35 AM 28.4 °F 16.2 °F 21.2 °F 74% 29.91 in 10.0 mi West 17.3 mph 23.0 mph N/A   Overcast
10:55 AM 28.4 °F 16.2 °F 21.2 °F 74% 29.91 in 10.0 mi WSW 17.3 mph - N/A   Overcast
11:15 AM 30.2 °F 18.5 °F 23.0 °F 75% 29.90 in 10.0 mi West 17.3 mph - N/A   Overcast
11:35 AM 30.2 °F 18.9 °F 23.0 °F 75% 29.90 in 10.0 mi West 16.1 mph - N/A   Overcast
11:55 AM 32.0 °F 20.1 °F 23.0 °F 69% 29.90 in 10.0 mi West 19.6 mph - N/A   Mostly Cloudy
12:15 PM 32.0 °F 19.8 °F 23.0 °F 69% 29.90 in 10.0 mi West 20.7 mph 27.6 mph N/A   Partly Cloudy
12:35 PM 33.8 °F 23.5 °F 24.8 °F 70% 29.90 in 10.0 mi West 16.1 mph 23.0 mph N/A   Mostly Cloudy
12:55 PM 33.8 °F 22.5 °F 23.0 °F 65% 29.90 in 10.0 mi West 19.6 mph - N/A   Scattered Clouds
1:15 PM 35.6 °F 24.8 °F 23.0 °F 60% 29.89 in 10.0 mi West 19.6 mph - N/A   Partly Cloudy
1:35 PM 35.6 °F 25.9 °F 23.0 °F 60% 29.89 in 10.0 mi West 16.1 mph 24.2 mph N/A   Partly Cloudy
1:55 PM 35.6 °F 25.5 °F 21.2 °F 56% 29.89 in 10.0 mi West 17.3 mph 23.0 mph N/A   Clear
2:15 PM 35.6 °F 25.5 °F 21.2 °F 56% 29.89 in 10.0 mi WNW 17.3 mph - N/A   Clear
2:35 PM 35.6 °F 25.9 °F 21.2 °F 56% 29.89 in 10.0 mi West 16.1 mph - N/A   Partly Cloudy
2:55 PM 35.6 °F 26.6 °F 21.2 °F 56% 29.89 in 10.0 mi West 13.8 mph - N/A   Clear
3:15 PM 35.6 °F 26.6 °F 21.2 °F 56% 29.89 in 10.0 mi WSW 13.8 mph - N/A   Clear
3:35 PM 35.6 °F 27.1 °F 23.0 °F 60% 29.90 in 10.0 mi West 12.7 mph - N/A   Clear
3:55 PM 35.6 °F 28.0 °F 23.0 °F 60% 29.90 in 10.0 mi West 10.4 mph - N/A   Clear
4:15 PM 35.6 °F 28.0 °F 23.0 °F 60% 29.90 in 10.0 mi WSW 10.4 mph - N/A   Clear
4:35 PM 33.8 °F 27.7 °F 21.2 °F 60% 29.90 in 10.0 mi WSW 6.9 mph - N/A   Clear
4:55 PM 32.0 °F 26.4 °F 21.2 °F 64% 29.91 in 10.0 mi SW 5.8 mph - N/A   Clear
5:15 PM 32.0 °F 26.4 °F 21.2 °F 64% 29.91 in 10.0 mi SW 5.8 mph - N/A   Clear
5:35 PM 32.0 °F 27.5 °F 21.2 °F 64% 29.91 in 10.0 mi SW 4.6 mph - N/A   Clear
5:55 PM 30.2 °F 26.7 °F 21.2 °F 69% 29.91 in 10.0 mi SW 3.5 mph - N/A   Scattered Clouds
6:15 PM 30.2 °F 25.4 °F 21.2 °F 69% 29.91 in 10.0 mi SW 4.6 mph - N/A   Partly Cloudy
6:35 PM 30.2 °F 25.4 °F 21.2 °F 69% 29.91 in 10.0 mi SSW 4.6 mph - N/A   Clear
6:55 PM 28.4 °F 22.2 °F 19.4 °F 69% 29.92 in 10.0 mi South 5.8 mph - N/A   Clear
7:15 PM 26.6 °F 18.2 °F 19.4 °F 74% 29.92 in 10.0 mi South 8.1 mph - N/A   Clear
7:35 PM 24.8 °F 16.9 °F 17.6 °F 74% 29.92 in 10.0 mi South 6.9 mph - N/A   Clear
7:55 PM 24.8 °F 16.1 °F 17.6 °F 74% 29.92 in 10.0 mi South 8.1 mph - N/A   Clear
8:15 PM 23.0 °F 13.1 °F 17.6 °F 80% 29.93 in 10.0 mi South 9.2 mph - N/A   Clear
8:35 PM 23.0 °F 13.1 °F 17.6 °F 80% 29.93 in 10.0 mi South 9.2 mph - N/A   Clear
8:55 PM 24.8 °F 15.3 °F 17.6 °F 74% 29.93 in 10.0 mi South 9.2 mph - N/A   Clear
9:15 PM 24.8 °F 15.3 °F 17.6 °F 74% 29.93 in 10.0 mi South 9.2 mph - N/A   Clear
9:35 PM 24.8 °F 15.3 °F 17.6 °F 74% 29.93 in 10.0 mi South 9.2 mph - N/A   Clear
9:55 PM 23.0 °F 13.9 °F 15.8 °F 74% 29.93 in 10.0 mi South 8.1 mph - N/A   Clear
10:15 PM 23.0 °F 13.1 °F 15.8 °F 74% 29.93 in 10.0 mi South 9.2 mph - N/A   Clear
10:35 PM 23.0 °F 12.4 °F 15.8 °F 74% 29.93 in 10.0 mi South 10.4 mph - N/A   Clear
10:55 PM 23.0 °F 13.1 °F 15.8 °F 74% 29.93 in 10.0 mi South 9.2 mph - N/A   Clear
11:15 PM 23.0 °F 11.7 °F 15.8 °F 74% 29.93 in 10.0 mi South 11.5 mph - N/A   Clear
11:35 PM 23.0 °F 11.7 °F 17.6 °F 80% 29.93 in 10.0 mi South 11.5 mph - N/A   Clear
11:55 PM 24.8 °F 14.0 °F 17.6 °F 74% 29.93 in 10.0 mi South 11.5 mph - N/A   Clear